Location: GMARS
(34.2910°N, 116.3838°W)
Time: 06:25:15
(UTC-07:00)

Daily predictions for brighter satellites

Satellite Brightness Start Highest point End
(mag) Time Altitude Azimuth Time Altitude Azimuth Time Altitude Azimuth
Nadezhda 1 Rocket 4.4 18:58:29 10° N 19:04:50 75° W 19:11:05 10° S
GPS 2-04 Rocket1 3.8 19:01:29 10° W 19:05:31 43° SSW 19:09:36 10° SE
COSMO-SKYMED 1 3.6 19:06:34 10° N 19:10:47 53° WNW 19:15:00 10° SSW
USA 234 3.7 19:05:27 10° SSE 19:11:56 66° SW 19:18:28 10° NW
Cosmos 2181 Rocket 4.2 19:06:19 10° N 19:12:17 49° E 19:18:11 10° SSE
Cosmos 1943 Rocket 2.2 19:09:19 10° NNW 19:14:51 59° ENE 19:20:23 10° SSE
Cosmos 389 Rocket 2.4 19:11:44 10° S 19:15:14 89° W 19:18:44 10° N
Geosat 4.2 19:10:31 10° SE 19:15:21 50° ENE 19:20:12 10° NNW
Cosmos 1758 Rocket 3.7 19:14:12 10° N 19:18:36 53° E 19:22:58 10° SSE
Cosmos 1726 Rocket 3.5 19:16:36 10° S 19:20:57 74° E 19:25:16 10° N
H-2A R/B 3.4 19:19:32 10° SE 19:22:50 32° ENE 19:26:11 10° N
OE (NEXTSAT) 4.5 19:21:54 10° NW 19:25:24 61° NNE 19:28:13 15° ESE
Cosmos 2074 Rocket 4.4 19:19:44 10° SSE 19:25:27 41° E 19:31:11 10° NNE
Cosmos 858 Rocket 4.4 19:25:23 10° NNW 19:30:39 72° ENE 19:35:50 10° SSE
Cosmos 841 Rocket 3.4 19:29:03 10° S 19:34:08 69° ESE 19:39:15 10° NNE
Cosmos 1766 3.9 19:33:39 10° SSE 19:37:10 32° E 19:40:41 10° NNE
Meteor 2-5 Rocket 3.8 19:31:24 10° N 19:37:10 60° E 19:42:48 10° SSE
Meteor 1-22 Rocket 4.5 19:32:31 10° SSE 19:38:00 45° E 19:43:17 10° NNE
Cosmos 1937 Rocket 3.4 19:34:39 10° NNW 19:39:58 75° ENE 19:45:11 10° SSE
OAO 3 Copernicus 4.3 19:35:42 10° WSW 19:40:45 84° S 19:44:22 19° E
Cosmos 2298 Rocket 4.0 19:36:21 10° NNW 19:41:42 79° ENE 19:47:00 10° SSE
HJ-1C 3.7 19:39:02 10° SSE 19:42:13 44° ENE 19:45:26 10° N
Cosmos 2084 4.1 19:38:34 10° SW 19:42:38 54° WNW 19:46:30 10° NNE
Tiangong 2 3.8 19:41:26 10° W 19:43:26 16° SW 19:45:27 10° S
Resurs 01 Rocket 2.7 19:41:53 20° ESE 19:43:32 25° ENE 19:47:08 10° NNE
Cosmos 304 Rocket 3.7 19:39:37 10° SSW 19:44:23 79° ESE 19:49:11 10° NNE
Cosmos 1707 2.7 19:41:37 10° N 19:45:32 89° W 19:49:27 10° S
COSMOS 2406 3.3 19:41:28 10° S 19:46:59 54° ESE 19:52:32 10° NNE
FENGYUN 3A 4.1 19:42:15 10° S 19:47:32 66° WSW 19:52:53 10° NNW
USA 229 DEB 3.9 19:41:35 10° NNW 19:48:50 86° WSW 19:56:11 10° SSE
CSL-04 DEB 4.5 19:44:32 10° SSE 19:48:55 80° ENE 19:53:17 10° N
USA 229 3.9 19:41:41 10° NNW 19:48:56 87° WSW 19:56:17 10° SSE
FengYun 1-2 T 4.2 19:46:26 10° SSE 19:52:03 82° ENE 19:57:38 10° N
Cosmos 1656 Rocket 3.8 19:47:40 10° N 19:53:10 52° ENE 19:57:02 19° SE
Cosmos 2228 3.3 19:49:00 10° SSW 19:53:21 70° W 19:57:41 10° N
GP-B 4.0 19:49:54 10° NNE 19:53:40 27° E 19:53:47 27° E
Cosmos 1763 Rocket 4.3 19:50:16 10° SSW 19:55:12 53° WNW 20:00:14 10° N
Cosmos 2369 Rocket 4.1 19:52:44 10° NW 19:57:37 31° WSW 20:02:27 10° SSW
Cosmos 540 Rocket 3.5 19:53:24 10° S 19:58:21 55° ESE 20:03:20 10° NNE
Cosmos 1812 Rocket 4.1 19:54:52 10° SSE 19:58:55 37° E 20:03:01 10° NNE
Cosmos 2184 Rocket 3.9 19:54:37 10° S 20:00:53 80° E 20:07:15 10° N
Cosmos 2058 Rocket 4.0 19:57:22 10° SSW 20:01:35 50° W 20:05:49 10° N
ALOS 3.7 19:57:16 10° SSW 20:01:36 38° W 20:05:58 10° NNW
Cosmos 482 Debris 3.1 19:58:35 10° NW 20:02:02 86° SW 20:02:13 75° SSE
FREGAT/IRIS 4.0 20:00:12 10° S 20:03:03 39° W 20:05:55 10° NNW
NOSS 3-1 (C) 4.1 19:55:28 10° NNW 20:03:11 64° ENE 20:09:05 21° SE
BREEZE-M DEB 2.8 19:58:50 10° NW 20:05:54 76° NE 20:06:45 47° ESE
Cosmos 1378 4.2 20:04:08 10° NNW 20:07:46 47° W 20:11:22 10° SSW
Cosmos 1610 Rocket 4.5 20:02:22 10° S 20:08:36 64° E 20:14:54 10° NNE
Cosmos 1544 2.8 20:05:37 10° S 20:09:12 74° E 20:12:48 10° N
Cosmos 1805 3.6 20:14:16 45° NE 20:14:16 45° NE 20:17:21 10° NNE
In-Cosmos 22 4.2 20:11:17 10° N 20:16:58 68° E 20:20:43 22° SSE
Meteor 2-8 Rocket 4.3 20:12:45 10° N 20:18:51 65° E 20:22:49 22° SSE
CZ-2D R/B 3.1 20:17:58 50° SSE 20:18:52 85° E 20:22:42 10° N
Spot 2 Rocket 3.5 20:19:11 43° SE 20:20:32 57° ENE 20:25:28 10° N
Meteor 2-19 Rocket 4.3 20:20:59 10° S 20:27:00 79° E 20:33:04 10° N
Cosmos 1356 Rocket 4.2 20:25:18 10° NNW 20:29:30 54° W 20:32:38 17° SSW
BREEZE M DEB (TANK) 3.5 20:31:50 10° NW 20:35:50 41° N 20:35:50 41° N
Yuri Rocket 4.2 20:33:58 10° WSW 20:36:51 29° SSW 20:36:51 29° SSW
GEOS 3 Rocket 3.5 20:36:06 12° NNE 20:41:10 86° SE 20:46:32 10° SSW
Cosmos 962 Rocket 4.4 20:43:15 40° SSE 20:45:37 71° E 20:51:58 10° N
Meteor 1-24 Rocket 4.5 20:40:38 10° NNW 20:46:23 53° W 20:51:54 10° SSW
Cosmos 1125 Rocket 3.4 20:43:02 10° NNW 20:48:12 81° NE 20:48:12 81° NE
Envisat 3.1 20:52:10 66° SSW 20:52:43 73° WSW 20:57:47 10° NNW
ATLAS CENTAUR R/B 2.9 20:47:10 10° NW 20:56:51 59° WSW 20:57:21 56° SW
Cosmos 372 Rocket 4.2 20:56:27 10° NNW 21:00:54 64° NNW 21:00:54 64° NNW
Milstar 3 Cent rocket 3.4 21:00:26 10° WSW 21:02:54 26° SW 21:02:54 26° SW
Cosmos 2341 Rocket 4.2 21:13:40 53° SW 21:15:02 68° W 21:21:14 10° N
Resurs 01 Rocket 3.6 21:19:28 23° WSW 21:19:53 24° W 21:23:28 10° NW
ATLAS 2AS CENTAUR R/B 3.9 21:28:09 10° NNW 21:33:45 35° NNE 21:33:45 35° NNE
FALCON 9 R/B 3.5 21:40:37 10° W 21:42:57 39° W 21:42:57 39° W
